Notices

What's New in latest Release from April 7th, 2021:

- Updated Glossary, including Speed of Maximum Gust, and Total Hourly Precipitation

- Updated national and regional climate services offices contacts and prices information

- Addition of station inventory lists for 1981-2010, 1971-2000, and 1961-1990 Normals.

If you haven't already, please take our survey and provide feedback about our website: https://eccc.sondage-survey.ca/f/LanguageSelection.aspx?s=442ca660-fcf1-47c0-95a9-59707d6fd709

Hourly Data Report for March 15, 2019

MIRAMICHI RCS
NEW BRUNSWICK
Current Station Operator: ECCC - MSC

47°00'34.000" N
65°27'54.000" W
33.00 m
8100989
71744
ACQ

Download Data

Hourly Data (March 2019)
Hourly Data Report for March 15, 2019
TIME
LST
Temp Definition
°C
Dew Point Definition
°C
Rel Hum Definition
%
Precip. Amount Definition
mm

Wind Dir Definition
10's deg

Wind Spd Definition
km/h
Visibility Definition
km
Stn Press Definition
kPa
Hmdx Definition


Wind Chill Definition


Weather Definition


00:00 1.8 -2.1 75 0.0 22 14   101.61     LegendNANA
01:00 1.3 -1.5 82 0.0 22 14   101.57     LegendNANA
02:00 1.3 -1.3 83 0.0 21 14   101.50     LegendNANA
03:00 1.2 -1.2 84 0.0 21 13   101.44     LegendNANA
04:00 1.6 -1.0 83 0.0 20 17   101.33     LegendNANA
05:00 1.6 -1.1 82 0.0 19 20   101.17     LegendNANA
06:00 1.7 -1.3 80 0.0 19 13   101.12     LegendNANA
07:00 2.0 -0.9 81 0.0 21 19   101.10     LegendNANA
08:00 2.3 -0.3 83 0.0 19 16   100.97     LegendNANA
09:00 3.3 0.6 82 0.0 20 24   100.84     LegendNANA
10:00 4.3 1.0 79 0.0 20 21   100.72     LegendNANA
11:00 5.2 0.5 72 0.0 20 20   100.54     LegendNANA
12:00 6.3 0.8 68 0.0 20 23   100.44     LegendNANA
13:00 5.5 2.4 80 0.0 19 22   100.23     LegendNANA
14:00 5.4 4.5 94 1.4 20 22   100.11     LegendNANA
15:00 5.7 4.8 94 0.0 22 27   100.05     LegendNANA
16:00 5.4 4.7 95 0.0 22 23   99.91     LegendNANA
17:00 5.9 5.2 95 0.9 18 24   99.72     LegendNANA
18:00 6.1 5.3 95 0.0 21 21   99.80     LegendNANA
19:00 5.3 4.7 96 0.0 22 22   99.81     LegendNANA
20:00 5.3 4.9 97 0.0 23 20   99.87     LegendNANA
21:00 5.7 5.4 98 0.0 24 15   99.90     LegendNANA
22:00 5.3 5.1 98 0.0 22 19   99.88     LegendNANA
23:00 5.0 4.6 97 0.0 23 19   99.84     LegendNANA

Notes on Data Quality.

Legend

  • E = Estimated
  • M = Missing
  • NA = Not Available*
  • [empty] = Indicates an unobserved value
Date modified: